{"data":{"norad_id":52835,"epoch":"2026-09-20T05:08:33.417024Z","epoch_age_seconds":91079,"freshness":"FRESH","line1":"1 52835U 22062F   26263.21427566  .00000558  00000+0  29760-4 0  9992","line2":"2 52835  53.1567 230.1443 0001248  92.6514 267.4631 15.31702174235292","mean_motion":15.31702174,"eccentricity":0.0001248,"inclination_deg":53.1567,"raan_deg":230.1443,"arg_perigee_deg":92.6514,"mean_anomaly_deg":267.4631,"bstar":2.976e-5,"rev_number":23529,"period_min":94.013054524789,"perigee_km":469.87877561221,"apogee_km":471.58825369267,"semimajor_km":6848.8705146524,"source":"CELESTRAK","updated_at":"2026-09-20T09:00:40.111509Z"}}